Weather History for Steamboat Springs, CO

Change the Weather History Date:

Thursday, March 13, 2014

  Actual Average Record
Temperature  
Mean Temperature 29 °F -  
Max Temperature 49 °F 42 °F 58 °F (1922)
Min Temperature 9 °F 13 °F -25 °F (1932)
Degree Days  
Heating Degree Days 36    
Moisture  
Dew Point 8 °F    
Average Humidity 46    
Maximum Humidity 78    
Minimum Humidity 18    
Precipitation  
Precipitation 0.00 in - - ()
Sea Level Pressure  
Sea Level Pressure 30.09 in    
Wind  
Wind Speed 1 mph (WSW)    
Max Wind Speed 17 mph    
Max Gust Speed 23 mph    
Visibility 10 miles    
Events      
Averages and records for this station are not official NWS values.
T = Trace of Precipitation, MM = Missing Value Source: NWS Daily Summary

Daily Weather History Graph

Daily Weather History Graph

Search for Another Location

Airport:

Trip Planner

Search our weather history database for the weather conditions in past years. The results will help you decide how hot, cold, wet, or windy it might be!

Date:

Astronomy

Mar. 13, 2014 Rise Set
Actual Time 7:22 AM MDT 7:12 PM MDT
Civil Twilight 6:55 AM MDT 7:39 PM MDT
Nautical Twilight 6:23 AM MDT 8:11 PM MDT
Astronomical Twilight 5:51 AM MDT 8:43 PM MDT
Moon 4:40 PM MDT (3/13) 5:31 AM MDT (3/13)
Length of Visible Light 12h 44m
Length of Day
11h 50m
Waxing Gibbous, 92% of the Moon is Illuminated
Mar 13
Waxing Gibbous
Mar 16
Full
Mar 23
Last Quarter
Mar 30
New
Apr 7
First Quarter

Hourly Weather History & Observations

Time (MDT) Temp. Windchill Dew Point Humidity Pressure Visibility Wind Dir Wind Speed Gust Speed Precip Events Conditions
12:15 AM 19.0 °F - 3.7 °F 51% 30.24 in 10.0 mi Calm Calm - N/A   Clear
12:35 AM 19.0 °F - 3.2 °F 50% 30.24 in 10.0 mi Calm Calm - N/A   Clear
12:55 AM 18.3 °F - 3.9 °F 53% 30.24 in 10.0 mi Calm Calm - N/A   Clear
1:15 AM 16.7 °F - 5.9 °F 63% 30.24 in 10.0 mi Calm Calm - N/A   Clear
1:35 AM 18.3 °F - 4.1 °F 54% 30.24 in 10.0 mi Calm Calm - N/A   Clear
1:55 AM 15.8 °F - 4.5 °F 61% 30.23 in 10.0 mi Calm Calm - N/A   Clear
2:15 AM 16.0 °F - 4.3 °F 60% 30.23 in 10.0 mi Calm Calm - N/A   Clear
2:35 AM 15.8 °F - 4.8 °F 62% 30.23 in 10.0 mi Calm Calm - N/A   Clear
2:55 AM 15.3 °F - 4.1 °F 61% 30.23 in 10.0 mi Calm Calm - N/A   Clear
3:15 AM 14.4 °F - 3.9 °F 63% 30.22 in 10.0 mi Calm Calm - N/A   Clear
3:35 AM 14.5 °F - 3.9 °F 63% 30.21 in 10.0 mi Calm Calm - N/A   Clear
3:55 AM 13.8 °F - 4.1 °F 65% 30.20 in 10.0 mi Calm Calm - N/A   Clear
4:15 AM 12.7 °F - 3.9 °F 68% 30.20 in 10.0 mi Calm Calm - N/A   Clear
4:35 AM 12.0 °F - 4.3 °F 71% 30.20 in 10.0 mi Calm Calm - N/A   Clear
4:55 AM 13.5 °F - 5.5 °F 71% 30.20 in 10.0 mi Calm Calm - N/A   Clear
5:15 AM 12.4 °F - 5.0 °F 72% 30.19 in 10.0 mi Calm Calm - N/A   Clear
5:35 AM 11.7 °F - 5.7 °F 77% 30.19 in 10.0 mi Calm Calm - N/A   Clear
5:55 AM 11.3 °F - 5.2 °F 76% 30.19 in 10.0 mi Calm Calm - N/A   Clear
6:15 AM 11.5 °F - 5.5 °F 77% 30.19 in 10.0 mi Calm Calm - N/A   Clear
6:35 AM 11.1 °F - 5.0 °F 76% 30.18 in 10.0 mi Calm Calm - N/A   Clear
6:55 AM 9.7 °F - 4.1 °F 78% 30.18 in 10.0 mi Calm Calm - N/A   Clear
7:15 AM 11.3 °F - 4.5 °F 74% 30.18 in 10.0 mi Calm Calm - N/A   Clear
7:35 AM 11.7 °F - 4.6 °F 73% 30.18 in 10.0 mi Calm Calm - N/A   Clear
7:55 AM 10.9 °F - 4.1 °F 74% 30.18 in 10.0 mi Calm Calm - N/A   Clear
8:15 AM 10.9 °F - 3.6 °F 72% 30.18 in 10.0 mi Calm Calm - N/A   Clear
8:35 AM 12.0 °F - 4.5 °F 72% 30.18 in 10.0 mi Calm Calm - N/A   Clear
8:55 AM 16.0 °F - 5.0 °F 62% 30.18 in 10.0 mi Calm Calm - N/A   Clear
9:15 AM 18.0 °F - 5.0 °F 57% 30.17 in 10.0 mi Calm Calm - N/A   Clear
9:35 AM 19.8 °F - 4.8 °F 52% 30.16 in 10.0 mi Calm Calm - N/A   Clear
9:55 AM 21.6 °F - 5.0 °F 49% 30.16 in 10.0 mi Calm Calm - N/A   Clear
10:15 AM 21.2 °F - 6.4 °F 53% 30.15 in 10.0 mi Calm Calm - N/A   Clear
10:35 AM 22.5 °F - 6.4 °F 50% 30.14 in 10.0 mi Calm Calm - N/A   Clear
10:55 AM 26.4 °F - 7.3 °F 45% 30.13 in 10.0 mi Calm Calm - N/A   Clear
11:15 AM 29.1 °F - 9.5 °F 44% 30.11 in 10.0 mi Calm Calm - N/A   Clear
11:35 AM 30.6 °F - 8.4 °F 39% 30.10 in 10.0 mi Calm Calm - N/A   Clear
11:55 AM 32.0 °F - 8.6 °F 38% 30.09 in 10.0 mi Calm Calm - N/A   Clear
12:15 PM 32.2 °F - 9.1 °F 38% 30.08 in 10.0 mi Calm Calm - N/A   Clear
12:35 PM 33.8 °F - 8.4 °F 35% 30.07 in 10.0 mi Calm Calm - N/A   Clear
12:55 PM 35.6 °F - 7.7 °F 31% 30.07 in 10.0 mi Calm Calm - N/A   Clear
1:15 PM 36.9 °F - 7.9 °F 30% 30.06 in 10.0 mi Calm Calm - N/A   Clear
1:35 PM 38.7 °F - 9.3 °F 30% 30.04 in 10.0 mi Calm Calm - N/A   Clear
1:55 PM 41.9 °F - 11.1 °F 28% 30.03 in 10.0 mi Calm Calm - N/A   Clear
2:15 PM 43.7 °F - 10.0 °F 25% 30.02 in 10.0 mi Calm Calm - N/A   Clear
2:35 PM 43.5 °F - 12.0 °F 28% 30.00 in 10.0 mi Calm Calm - N/A   Clear
2:55 PM 49.5 °F - 7.2 °F 18% 29.99 in 10.0 mi Calm Calm - N/A   Scattered Clouds
3:15 PM 46.9 °F - 8.6 °F 21% 29.98 in 10.0 mi Calm Calm - N/A   Scattered Clouds
3:35 PM 48.4 °F - 9.0 °F 20% 29.98 in 10.0 mi Calm Calm - N/A   Scattered Clouds
3:55 PM 48.9 °F - 8.2 °F 19% 29.98 in 10.0 mi Calm Calm - N/A   Scattered Clouds
4:15 PM 49.6 °F - 8.1 °F 19% 29.98 in 10.0 mi WNW 12.7 mph 18.4 mph N/A   Clear
4:35 PM 47.1 °F - 9.1 °F 21% 29.98 in 10.0 mi West 8.1 mph - N/A   Clear
4:55 PM 48.2 °F - 10.2 °F 22% 29.97 in 10.0 mi West 17.3 mph 23.0 mph N/A   Clear
5:15 PM 48.2 °F - 8.8 °F 20% 29.96 in 10.0 mi West 15.0 mph 20.7 mph N/A   Scattered Clouds
5:35 PM 47.5 °F - 9.1 °F 21% 29.96 in 10.0 mi West 13.8 mph 20.7 mph N/A   Clear
5:55 PM 46.4 °F 41.9 °F 9.1 °F 22% 29.97 in 10.0 mi West 9.2 mph 23.0 mph N/A   Clear
6:15 PM 43.9 °F 38.3 °F 10.9 °F 26% 29.96 in 10.0 mi West 10.4 mph 17.3 mph N/A   Clear
6:35 PM 44.4 °F 38.6 °F 10.4 °F 25% 29.96 in 10.0 mi West 11.5 mph - N/A   Clear
6:55 PM 43.5 °F 37.5 °F 10.0 °F 26% 29.96 in 10.0 mi WSW 11.5 mph 18.4 mph N/A   Clear
7:15 PM 41.4 °F 34.7 °F 10.8 °F 29% 29.95 in 10.0 mi WSW 11.5 mph - N/A   Clear
7:35 PM 39.7 °F 34.3 °F 11.8 °F 32% 29.96 in 10.0 mi West 8.1 mph - N/A   Clear
7:55 PM 39.6 °F 35.4 °F 10.9 °F 31% 29.97 in 10.0 mi West 5.8 mph - N/A   Clear
8:15 PM 39.7 °F - 10.0 °F 30% 29.98 in 10.0 mi Calm Calm - N/A   Clear
8:35 PM 39.4 °F - 10.0 °F 30% 29.99 in 10.0 mi Calm Calm - N/A   Clear
8:55 PM 38.7 °F - 10.2 °F 31% 30.00 in 10.0 mi Calm Calm - N/A   Clear
9:15 PM 37.0 °F 34.5 °F 12.6 °F 37% 30.00 in 10.0 mi ESE 3.5 mph - N/A   Clear
9:35 PM 37.4 °F 34.9 °F 11.8 °F 35% 30.00 in 10.0 mi SE 3.5 mph - N/A   Clear
9:55 PM 34.7 °F 29.6 °F 13.1 °F 41% 30.00 in 10.0 mi SE 5.8 mph - N/A   Clear
10:15 PM 33.3 °F - 15.1 °F 47% 30.02 in 10.0 mi Calm Calm - N/A   Clear
10:35 PM 34.7 °F - 13.1 °F 41% 30.02 in 10.0 mi Calm Calm - N/A   Clear
10:55 PM 31.3 °F - 14.7 °F 50% 30.02 in 10.0 mi Calm Calm - N/A   Clear
11:15 PM 31.5 °F - 14.9 °F 50% 30.03 in 10.0 mi Calm Calm - N/A   Clear
11:35 PM 31.8 °F - 14.4 °F 49% 30.03 in 10.0 mi Calm Calm - N/A   Clear
11:55 PM 29.8 °F - 14.2 °F 52% 30.03 in 10.0 mi Calm Calm - N/A   Clear